User: anonymous   Login
Location: Alfortville
(48.8058°N, 2.4204°E)
Time: 12:22:31
(UTC+00:00)
Language:

Cosmos 1980 Rocket - Orbit

View from above orbital plane
View from above orbital plane
View from above satellite
View from above satellite

Ground track
Ground track

The orbit data is extracted from the following two-line orbital elements,

1 19650U 88102B   22273.09707377 -.00000040  00000-0  37333-5 0  9995
2 19650  70.9981 274.7766 0012303 129.9150 230.3057 14.15843434749290
Epoch (UTC): 30 September 2022 02:19:47
Eccentricity: 0.0012303
inclination: 70.9981°
perigee height: 830 km
apogee height: 848 km
right ascension of ascending node: 274.7766°
argument of perigee: 129.9150°
revolutions per day: 14.15843434
mean anomaly at epoch: 230.3057°
orbit number at epoch: 74929

The dashed part of the orbit path shows where the satellite is in the earth's shadow,  

DLR